STARLINK-34651, 64861

Orbit data source: Space-Track

STARLINK-34651, 64861 is a payload satellite owned by SpaceX/Seattle (US) in SSO that was launched on Sat, 19 Jul 2025 UTC via an FALCON 9 launch vehicle from the Air Force Western Test Range (AFWTR). Payload-class satellites include a variety of spacecraft equipped with specific instruments for various scientific and technological missions. These include communications satellites like Starlink; space stations such as the ISS; scientific satellites like the Hubble; Earth observation satellites from companies like Planet Labs, Umbra, and HawkEye 360; GPS; miniature CubeSats for education and research; and military/defense satellites.

Loading next visibility...
Identifier
64861, 2025-152V
Orbit
SSO
Country
Flag of USUS
Related business
Manufacturer
SpaceX/Seattle
Mission
Operational Commercial Communications
Bus & Motor
STARLINK V2MO, Unknown motor
Mass
575 kg wet, ~530 kg dry
Launch date (UTC)
2025-07-19 (9 months ago)
Launch vehicle
FALCON 9
Launch site
Air Force Western Test Range (AFWTR)
Object type
Payload
Rocket body
Debris
Shape & HBR
Box + 2 Pan, 17.7 m
Radar Cross Section
36.964 m², Large (>1 m²)

Expand to show TLE details & history
Last TLE update: 19 hours ago

TLE from 19 hours ago
0 STARLINK-34651
1 64861U 25152V   26094.57143247 -.00008501  00000-0 -65810-3 0  9993
2 64861  97.6023 311.0597 0001637 120.0448 240.0939 15.01259990 39310
Epoch: 2026-04-04T13:42Z
TLE epoch observation values (Epoch: 2026-04-04T13:42:51.765Z)
Latitude
-0.00001°
Longitude
-87.54528°
Altitude
566.636 km
Speed
7.577 km/s
True Right ascension
20h 44m 14s
True Declination
0° 00' 00"
Sunlit
Object was in daylight at epoch
Visualization orbit readout
Latitude
Unknown
Longitude
Unknown
Altitude
Unknown
Speed
Unknown
Apparent Right ascension
Unknown
Apparent Declination
Unknown
Sunlit
N/A
Visualization observer readout
Local Sidereal Time
14:31:06
Azimuth
Unknown
Elevation
Unknown
Doppler factor
Unknown
Orbital elements
Apogee altitude
561.145 km
Perigee altitude
558.873 km
Semi-major axis
6,938.146 km
Eccentricity
0.00016
Inclination
97.6023°
RAAN
311.0597°
Arg. of periapsis
120.0448°
True anomaly
240.07764°
Mean anomaly
240.0939°
Eccentric anomaly
240.08577°
Mean motion
3.75559 °/min
Orbital period
95.86 mins
BSTAR
-0.0006581
Loading maneuver chart data...
Computing Atmospheric mass density...
Loading historical data...
Loading historical data...
Loading historical data...
Loading historical data...
Loading historical data...
Loading historical data...
Loading historical data...

Documentation

Showing up to 5 results
|